Curacao, Curacao

2:40 AM AST on February 25, 2018 (GMT -0400)
Willemstad-Hato International

Weather History for TNCC - December, 2012

Change the Weather History Date:

Tuesday, December 18, 2012

  Actual Average Record
Temperature  
Mean Temperature 79 °F -  
Max Temperature 84 °F 84 °F 88 °F (2014)
Min Temperature 74 °F 75 °F 73 °F (2005)
Cooling Degree Days 14    
Growing Degree Days 29 (Base 50)    
Moisture  
Dew Point 72 °F    
Average Humidity 78    
Maximum Humidity 89    
Minimum Humidity 60    
Precipitation  
Precipitation 0.00 in 0.09 in - ()
Sea Level Pressure  
Sea Level Pressure 29.88 in    
Wind  
Wind Speed 9 mph ()    
Max Wind Speed 14 mph    
Max Gust Speed -    
Visibility 6.2 miles    
Events Rain    
Averages and records for this station are not official NWS values.
T = Trace of Precipitation, MM = Missing Value Source: Averaged Metar Reports

Daily Weather History Graph

Daily Weather History Graph

Search for Another Location

Airport or City:

Trip Planner

Search our weather history database for the weather conditions in past years. The results will help you decide how hot, cold, wet, or windy it might be!

Date:

Astronomy

Dec. 18, 2012 Rise Set
Actual Time 6:50 AM AST 6:15 PM AST
Civil Twilight 6:27 AM AST 6:38 PM AST
Nautical Twilight 6:00 AM AST 7:04 PM AST
Astronomical Twilight 5:34 AM AST 7:31 PM AST
Moon 11:21 AM AST (12/18) 11:38 PM AST (12/18)
Length of Visible Light 12h 10m
Length of Day
11h 24m
Waxing Crescent, 34% of the Moon is Illuminated
Dec 18
Waxing Crescent
Dec 20
First Quarter
Dec 28
Full
Jan 4
Last Quarter
Jan 11
New

Hourly Weather History & Observations

Time (AST) Temp. Heat Index Dew Point Humidity Pressure Visibility Wind Dir Wind Speed Gust Speed Precip Events Conditions
12:00 AM 77.0 °F - 71.6 °F 83% 29.89 in 6.2 mi East 11.5 mph - N/A   Partly Cloudy
1:00 AM 77.0 °F - 71.6 °F 83% 29.89 in 6.2 mi ESE 10.4 mph - N/A   Partly Cloudy
2:00 AM 77 °F - 72 °F 79% 29.88 in 31 mi East 10.4 mph - -   Partly Cloudy
2:00 AM 77.0 °F - 71.6 °F 83% 29.86 in 6.2 mi ESE 9.2 mph - N/A   Scattered Clouds
3:00 AM 75.2 °F - 71.6 °F 89% 29.86 in 6.2 mi ESE 8.1 mph - N/A   Scattered Clouds
4:00 AM 77.0 °F - 71.6 °F 83% 29.83 in 6.2 mi East 11.5 mph - N/A   Partly Cloudy
5:00 AM 75 °F - 71 °F 85% 29.87 in 31 mi ESE 6.9 mph - -   Scattered Clouds
5:00 AM 75.2 °F - 71.6 °F 89% 29.86 in 6.2 mi ESE 6.9 mph - N/A   Scattered Clouds
6:00 AM 75.2 °F - 71.6 °F 89% 29.86 in 6.2 mi ESE 6.9 mph - N/A   Partly Cloudy
7:00 AM 77.0 °F - 71.6 °F 83% 29.86 in 6.2 mi ESE 9.2 mph - N/A   Scattered Clouds
8:00 AM 79 °F - 72 °F 75% 29.91 in 31 mi ESE 8.1 mph - -   Scattered Clouds
8:00 AM 78.8 °F - 73.4 °F 83% 29.89 in 6.2 mi ESE 8.1 mph - N/A   Partly Cloudy
9:00 AM 80.6 °F 84.6 °F 71.6 °F 74% 29.92 in 6.2 mi ESE 10.4 mph - N/A   Partly Cloudy
10:00 AM 82.4 °F 88.2 °F 73.4 °F 74% 29.92 in 6.2 mi East 11.5 mph - N/A   Partly Cloudy
11:00 AM 83 °F - 73 °F 64% 29.93 in 25 mi East 10.4 mph - -   Partly Cloudy
11:00 AM 84.2 °F 90.9 °F 73.4 °F 70% 29.92 in 6.2 mi East 10.4 mph - N/A   Scattered Clouds
12:00 PM 80.6 °F 85.4 °F 73.4 °F 79% 29.92 in 6.2 mi East 13.8 mph - N/A   Scattered Clouds
1:00 PM 80.6 °F 84.6 °F 71.6 °F 74% 29.89 in 6.2 mi East 11.5 mph - N/A   Scattered Clouds
2:00 PM 84 °F - 72 °F 60% 29.87 in 25 mi East 11.5 mph - -   Partly Cloudy
2:00 PM 84.2 °F 89.6 °F 71.6 °F 66% 29.86 in 6.2 mi East 11.5 mph - N/A   Scattered Clouds
3:00 PM 82.4 °F 87.2 °F 71.6 °F 70% 29.86 in 6.2 mi East 11.5 mph - N/A   Scattered Clouds
4:00 PM 82.4 °F 87.2 °F 71.6 °F 70% 29.83 in 6.2 mi East 9.2 mph - N/A   Scattered Clouds
5:00 PM 80 °F - 72 °F 69% 29.85 in 25 mi ESE 12.7 mph - -   Mostly Cloudy
5:00 PM 80.6 °F 84.6 °F 71.6 °F 74% 29.83 in 6.2 mi ESE 12.7 mph - N/A Rain Light Rain Showers
6:00 PM 78.8 °F - 71.6 °F 78% 29.86 in 6.2 mi ESE 9.2 mph - N/A   Scattered Clouds
7:00 PM 78.8 °F - 73.4 °F 83% 29.86 in 6.2 mi ESE 11.5 mph - N/A   Scattered Clouds
8:00 PM 78 °F - 72 °F 78% 29.88 in 25 mi East 11.5 mph - -   Partly Cloudy
8:00 PM 78.8 °F - 73.4 °F 83% 29.86 in 6.2 mi East 11.5 mph - N/A   Scattered Clouds
9:00 PM 77.0 °F - 71.6 °F 83% 29.89 in 6.2 mi East 10.4 mph - N/A   Partly Cloudy
10:00 PM 77.0 °F - 71.6 °F 83% 29.89 in 6.2 mi East 10.4 mph - N/A   Partly Cloudy
11:00 PM 76 °F - 69 °F 75% 29.91 in 25 mi ESE 13.8 mph - -   Scattered Clouds
11:00 PM 75.2 °F - 69.8 °F 83% 29.92 in 6.2 mi ESE 13.8 mph - N/A   Partly Cloudy